Overview Statistics Trail Chart Weather Telemetry Raw packets
 

This is the latest recevied weather packets stored in our database for station/object KK6MIG-13. If no packets are shown the sender has not sent any weather packets the latest 10 day(s).

<< 488 489 490 491 492 493 494 >>
Time Temp. Humidity Pressure Rain* Wind** Luminosity Snow
1787866562 17.22° C 1% 1014.2 hPa 0 mm - 592 W/m² -
1787866502 16.67° C 2% 1014.1 hPa 0 mm - 592 W/m² -
1787866442 17.22° C 4% 1014.1 hPa 0 mm - 675 W/m² -
1787866382 17.22° C 3% 1014.1 hPa 0 mm - 765 W/m² -
1787866322 17.22° C 5% 1014.1 hPa 0 mm - 765 W/m² -
1787866278 17.22° C 6% 1014 hPa 0 mm - 765 W/m² -
1787866274 17.22° C 5% 1014.1 hPa 0 mm - 821 W/m² -
1787866270 17.22° C 4% 1014.1 hPa 0 mm - 765 W/m² -
1787866081 17.22° C 5% 1014.1 hPa 0 mm - 821 W/m² -
1787866021 17.22° C 7% 1014 hPa 0 mm - 821 W/m² -
1787865962 17.22° C 8% 1014.1 hPa 0 mm - 737 W/m² -
1787865902 17.22° C 9% 1014.1 hPa 0 mm - 888 W/m² -
1787865842 17.22° C 4% 1014.1 hPa 0 mm - 888 W/m² -
1787865782 17.22° C 2% 1014.1 hPa 0 mm - 914 W/m² -
1787865722 17.22° C 1% 1014.1 hPa 0 mm - 847 W/m² -
1787865663 17.22° C 1% 1014.1 hPa 0 mm - 921 W/m² -
1787865602 17.22° C 1% 1014.2 hPa 0 mm - 949 W/m² -
1787865542 17.22° C 1% 1014.2 hPa 0 mm - 953 W/m² -
1787865482 17.22° C 2% 1014.2 hPa 0 mm - 919 W/m² -
1787865431 17.22° C 4% 1014.2 hPa 0 mm - 919 W/m² -
1787865362 17.22° C 4% 1014.2 hPa 0 mm - 633 W/m² -
1787865238 17.22° C 3% 1014.3 hPa 0 mm - 633 W/m² -
1787865178 17.22° C 1% 1014.2 hPa 0 mm - 872 W/m² -
1787865118 17.22° C 1% 1014.2 hPa 0 mm - 872 W/m² -
1787865057 17.22° C 1% 1014.3 hPa 0 mm - 837 W/m² -

* Rain latest hour (hover to see other rain measurements)
** Current wind speed in m/s (hover to see current wind gust speed)